^^
Daily Summary for February 01, 2026 Units:  Metric    English   Both
Daily Weekly Monthly Yearly Custom
  High: Low: Average:
Temperature: 22.8 °C 6.7 °C 13.6 °C
Dew Point: 9.4 °C 3.3 °C 5.6 °C
Humidity: 81% 38% 61%
Wind Speed: 8km/h 0km/h 0.2km/h
Wind Gust: 8km/h - -
Wind- - WSW
Pressure: 1022.6 hPa 1019.2 hPa -
Precipitation: 0 mm    
Historical Graphs
 
 
Tabular Data for February 01, 2026
Time Temperature Dew Point Pressure Wind Wind Speed Wind Gust Humidity Rainfall Rate (Hourly) solar
00:04 9.4 °C 5 °C 1022.6 hPa Calm     75% 0 mm 0.00 W/m2
00:09 9.4 °C 5 °C 1022.6 hPa Calm     75% 0 mm 0.00 W/m2
00:14 9.4 °C 5 °C 1022.6 hPa Calm     75% 0 mm 0.00 W/m2
00:19 8.9 °C 5 °C 1022.6 hPa Calm     75% 0 mm 0.00 W/m2
00:24 8.9 °C 5 °C 1022.6 hPa Calm     75% 0 mm 0.00 W/m2
00:29 8.9 °C 5 °C 1022.6 hPa Calm     75% 0 mm 0.00 W/m2
00:34 9.4 °C 5 °C 1022.6 hPa Calm     75% 0 mm 0.00 W/m2
00:39 9.4 °C 5 °C 1022.6 hPa Calm     75% 0 mm 0.00 W/m2
00:44 9.4 °C 5 °C 1022.6 hPa Calm     75% 0 mm 0.00 W/m2
00:49 9.4 °C 5 °C 1022.6 hPa Calm     74% 0 mm 0.00 W/m2
00:54 9.4 °C 5 °C 1022.6 hPa Calm     74% 0 mm 0.00 W/m2
00:59 9.4 °C 5 °C 1022.6 hPa Calm     74% 0 mm 0.00 W/m2
01:03 9.4 °C 5 °C 1022.6 hPa Calm     74% 0 mm 0.00 W/m2
01:09 9.4 °C 5 °C 1022.6 hPa Calm     74% 0 mm 0.00 W/m2
01:14 9.4 °C 5 °C 1022.6 hPa Calm     74% 0 mm 0.00 W/m2
01:19 9.4 °C 5 °C 1022.6 hPa Calm     74% 0 mm 0.00 W/m2
01:24 9.4 °C 5 °C 1022.6 hPa Calm     75% 0 mm 0.00 W/m2
01:29 9.4 °C 5 °C 1022.6 hPa Calm     74% 0 mm 0.00 W/m2
01:34 9.4 °C 5 °C 1022.6 hPa Calm     75% 0 mm 0.00 W/m2
01:39 8.9 °C 5 °C 1022.6 hPa Calm     75% 0 mm 0.00 W/m2
01:44 8.9 °C 4.4 °C 1022.6 hPa Calm     75% 0 mm 0.00 W/m2
01:49 8.9 °C 4.4 °C 1022.6 hPa Calm     75% 0 mm 0.00 W/m2
01:54 8.9 °C 4.4 °C 1022.6 hPa Calm     75% 0 mm 0.00 W/m2
01:58 8.9 °C 4.4 °C 1022.6 hPa Calm     76% 0 mm 0.00 W/m2
02:04 8.9 °C 4.4 °C 1022.6 hPa Calm     76% 0 mm 0.00 W/m2
02:09 8.3 °C 4.4 °C 1022.6 hPa Calm     76% 0 mm 0.00 W/m2
02:14 8.3 °C 4.4 °C 1022.6 hPa Calm     77% 0 mm 0.00 W/m2
02:19 8.3 °C 5 °C 1022.6 hPa Calm     78% 0 mm 0.00 W/m2
02:24 8.3 °C 5 °C 1022.6 hPa Calm     78% 0 mm 0.00 W/m2
02:28 8.3 °C 5 °C 1022.6 hPa Calm     79% 0 mm 0.00 W/m2
02:34 8.3 °C 5 °C 1022.6 hPa Calm     79% 0 mm 0.00 W/m2
02:39 8.3 °C 5 °C 1022.6 hPa Calm     77% 0 mm 0.00 W/m2
02:44 8.3 °C 4.4 °C 1022.6 hPa Calm     76% 0 mm 0.00 W/m2
02:49 8.3 °C 4.4 °C 1022.6 hPa Calm     76% 0 mm 0.00 W/m2
02:54 8.3 °C 4.4 °C 1022.6 hPa Calm     76% 0 mm 0.00 W/m2
02:59 8.3 °C 4.4 °C 1022.6 hPa Calm     75% 0 mm 0.00 W/m2
03:04 8.3 °C 4.4 °C 1022.6 hPa Calm     75% 0 mm 0.00 W/m2
03:09 8.3 °C 3.9 °C 1022.6 hPa Calm     74% 0 mm 0.00 W/m2
03:14 8.3 °C 4.4 °C 1022.6 hPa Calm     75% 0 mm 0.00 W/m2
03:19 8.3 °C 3.9 °C 1022.6 hPa Calm     73% 0 mm 0.00 W/m2
03:24 8.3 °C 3.9 °C 1022.6 hPa Calm     74% 0 mm 0.00 W/m2
03:29 8.3 °C 3.9 °C 1022.6 hPa Calm     74% 0 mm 0.00 W/m2
03:34 8.3 °C 4.4 °C 1022.6 hPa Calm     75% 0 mm 0.00 W/m2
03:39 8.3 °C 3.9 °C 1022.6 hPa Calm     75% 0 mm 0.00 W/m2
03:44 8.3 °C 3.9 °C 1022.6 hPa Calm     76% 0 mm 0.00 W/m2
03:49 8.3 °C 4.4 °C 1022.6 hPa Calm     77% 0 mm 0.00 W/m2
03:54 7.8 °C 4.4 °C 1022.6 hPa Calm     77% 0 mm 0.00 W/m2
03:59 7.8 °C 3.9 °C 1022.6 hPa Calm     77% 0 mm 0.00 W/m2
04:03 7.8 °C 3.9 °C 1022.6 hPa Calm     77% 0 mm 0.00 W/m2
04:09 7.8 °C 4.4 °C 1022.6 hPa Calm     78% 0 mm 0.00 W/m2
04:14 7.8 °C 4.4 °C 1022.6 hPa Calm     78% 0 mm 0.00 W/m2
04:19 7.8 °C 3.9 °C 1022.6 hPa Calm     77% 0 mm 0.00 W/m2
04:24 7.2 °C 3.9 °C 1022.6 hPa Calm     78% 0 mm 0.00 W/m2
04:29 7.2 °C 3.9 °C 1022.6 hPa Calm     79% 0 mm 0.00 W/m2
04:34 7.2 °C 3.9 °C 1022.6 hPa Calm     80% 0 mm 0.00 W/m2
04:39 7.2 °C 3.9 °C 1022.6 hPa Calm     81% 0 mm 0.00 W/m2
04:44 6.7 °C 3.9 °C 1022.6 hPa Calm     81% 0 mm 0.00 W/m2
04:49 7.2 °C 3.3 °C 1022.6 hPa Calm     79% 0 mm 0.00 W/m2
04:54 7.2 °C 3.3 °C 1022.6 hPa Calm     78% 0 mm 0.00 W/m2
04:59 7.2 °C 3.3 °C 1022.6 hPa Calm     77% 0 mm 0.00 W/m2
05:04 7.8 °C 3.3 °C 1022.6 hPa Calm     76% 0 mm 0.00 W/m2
05:09 7.8 °C 3.9 °C 1022.6 hPa Calm     76% 0 mm 0.00 W/m2
05:14 7.8 °C 3.9 °C 1022.6 hPa Calm     76% 0 mm 0.00 W/m2
05:19 7.8 °C 3.3 °C 1022.6 hPa Calm     76% 0 mm 0.00 W/m2
05:24 7.8 °C 3.3 °C 1022.6 hPa Calm     76% 0 mm 0.00 W/m2
05:29 7.8 °C 3.9 °C 1022.6 hPa Calm     76% 0 mm 0.00 W/m2
05:33 7.8 °C 3.9 °C 1022.6 hPa Calm     76% 0 mm 0.00 W/m2
05:39 7.8 °C 3.3 °C 1022.6 hPa Calm     73% 0 mm 0.00 W/m2
05:44 8.3 °C 3.3 °C 1022.6 hPa Calm     73% 0 mm 0.00 W/m2
05:49 8.3 °C 3.3 °C 1022.6 hPa Calm     71% 0 mm 0.00 W/m2
05:54 8.3 °C 3.3 °C 1022.6 hPa Calm     72% 0 mm 0.00 W/m2
05:59 8.3 °C 3.3 °C 1022.6 hPa Calm     71% 0 mm 0.00 W/m2
06:04 8.9 °C 3.3 °C 1022.6 hPa Calm     70% 0 mm 0.00 W/m2
06:09 8.9 °C 3.3 °C 1022.6 hPa Calm     69% 0 mm 0.00 W/m2
06:14 8.9 °C 3.3 °C 1022.6 hPa Calm     67% 0 mm 0.00 W/m2
06:19 9.4 °C 3.9 °C 1022.6 hPa Calm     68% 0 mm 0.00 W/m2
06:24 9.4 °C 3.9 °C 1022.6 hPa Calm     68% 0 mm 0.00 W/m2
06:29 9.4 °C 3.9 °C 1022.6 hPa Calm     68% 0 mm 0.00 W/m2
06:34 9.4 °C 3.9 °C 1022.6 hPa Calm     68% 0 mm 0.00 W/m2
06:39 9.4 °C 3.9 °C 1022.6 hPa Calm     69% 0 mm 0.00 W/m2
06:44 8.9 °C 3.9 °C 1022.6 hPa Calm     69% 0 mm 0.00 W/m2
06:49 8.9 °C 3.3 °C 1022.6 hPa Calm     69% 0 mm 0.00 W/m2
06:54 8.9 °C 3.3 °C 1022.6 hPa Calm     69% 0 mm 0.00 W/m2
06:59 8.9 °C 3.3 °C 1022.6 hPa Calm     68% 0 mm 0.00 W/m2
07:04 8.9 °C 3.3 °C 1022.6 hPa Calm     68% 0 mm 0.00 W/m2
07:09 8.9 °C 3.3 °C 1022.6 hPa Calm     67% 0 mm 0.00 W/m2
07:14 8.9 °C 3.3 °C 1022.6 hPa Calm     67% 0 mm 0.00 W/m2
07:19 8.9 °C 3.3 °C 1022.6 hPa Calm     67% 0 mm 9.00 W/m2
07:24 8.9 °C 3.3 °C 1022.6 hPa Calm     68% 0 mm 11.00 W/m2
07:29 8.9 °C 3.3 °C 1022.6 hPa Calm     69% 0 mm 12.00 W/m2
07:34 8.9 °C 3.3 °C 1022.6 hPa Calm     69% 0 mm 16.00 W/m2
07:38 8.9 °C 3.3 °C 1022.6 hPa Calm     69% 0 mm 18.00 W/m2
07:44 8.9 °C 3.9 °C 1022.6 hPa Calm     71% 0 mm 23.00 W/m2
07:49 8.9 °C 3.9 °C 1022.6 hPa Calm     72% 0 mm 26.00 W/m2
07:54 8.3 °C 3.9 °C 1022.6 hPa Calm     72% 0 mm 28.00 W/m2
07:58 8.3 °C 3.9 °C 1022.6 hPa Calm     72% 0 mm 32.00 W/m2
08:04 8.3 °C 3.9 °C 1022.6 hPa Calm     72% 0 mm 35.00 W/m2
08:09 8.3 °C 3.9 °C 1022.6 hPa Calm     73% 0 mm 40.00 W/m2
08:14 8.9 °C 3.9 °C 1022.6 hPa Calm     73% 0 mm 47.00 W/m2
08:19 8.9 °C 4.4 °C 1022.6 hPa Calm     73% 0 mm 51.00 W/m2
08:24 8.9 °C 4.4 °C 1022.6 hPa Calm     73% 0 mm 60.00 W/m2
08:29 9.4 °C 4.4 °C 1022.6 hPa Calm     73% 0 mm 60.00 W/m2
08:34 9.4 °C 5 °C 1022.6 hPa Calm     73% 0 mm 69.00 W/m2
08:39 10 °C 5 °C 1022.6 hPa Calm     73% 0 mm 77.00 W/m2
08:44 10 °C 4.4 °C 1022.6 hPa Calm     69% 0 mm 88.00 W/m2
08:49 10.6 °C 5 °C 1022.6 hPa Calm     69% 0 mm 91.00 W/m2
08:53 11.1 °C 4.4 °C 1022.6 hPa Calm     65% 0 mm 111.00 W/m2
08:59 11.7 °C 5 °C 1022.6 hPa Calm     65% 0 mm 178.00 W/m2
09:04 12.2 °C 4.4 °C 1022.6 hPa Calm     62% 0 mm 193.00 W/m2
09:09 12.2 °C 4.4 °C 1022.6 hPa Calm     59% 0 mm 285.00 W/m2
09:14 12.8 °C 3.9 °C 1022.6 hPa Calm     56% 0 mm 285.00 W/m2
09:19 13.3 °C 5 °C 1022.6 hPa Calm     56% 0 mm 243.00 W/m2
09:24 13.9 °C 5 °C 1022.6 hPa Calm     56% 0 mm 276.00 W/m2
09:29 14.4 °C 4.4 °C 1022.6 hPa Calm     51% 0 mm 301.00 W/m2
09:34 14.4 °C 4.4 °C 1022.6 hPa Calm     51% 0 mm 373.00 W/m2
09:39 15 °C 4.4 °C 1022.6 hPa Calm     49% 0 mm 411.00 W/m2
09:44 15.6 °C 5 °C 1022.6 hPa Calm     49% 0 mm 411.00 W/m2
09:49 16.1 °C 5.6 °C 1022.6 hPa Calm     50% 0 mm 415.00 W/m2
09:54 16.1 °C 5.6 °C 1022.6 hPa Calm     49% 0 mm 417.00 W/m2
09:59 16.7 °C 5.6 °C 1022.6 hPa Calm     50% 0 mm 436.00 W/m2
10:04 16.7 °C 6.1 °C 1022.6 hPa SW 1.6 km/h   50% 0 mm 439.00 W/m2
10:09 17.2 °C 6.1 °C 1022.6 hPa Calm   1.6 km/h 50% 0 mm 464.00 W/m2
10:14 17.2 °C 5.6 °C 1022.6 hPa Calm     47% 0 mm 464.00 W/m2
10:19 17.2 °C 5.6 °C 1022.6 hPa Calm     47% 0 mm 482.00 W/m2
10:23 17.2 °C 5.6 °C 1022.6 hPa Calm     46% 0 mm 482.00 W/m2
10:29 17.2 °C 5.6 °C 1022.6 hPa Calm     46% 0 mm 496.00 W/m2
10:34 17.8 °C 6.1 °C 1022.6 hPa Calm     47% 0 mm 508.00 W/m2
10:39 17.8 °C 6.7 °C 1022.6 hPa Calm     49% 0 mm 512.00 W/m2
10:44 17.8 °C 6.1 °C 1022.6 hPa Calm     47% 0 mm 531.00 W/m2
10:49 17.8 °C 6.1 °C 1022.6 hPa Calm     48% 0 mm 503.00 W/m2
10:54 17.8 °C 6.7 °C 1022.6 hPa Calm     48% 0 mm 538.00 W/m2
10:59 17.8 °C 5.6 °C 1022.6 hPa Calm     46% 0 mm 536.00 W/m2
11:04 17.8 °C 6.1 °C 1022.6 hPa Calm     48% 0 mm 510.00 W/m2
11:09 17.8 °C 6.7 °C 1022.6 hPa Calm     48% 0 mm 545.00 W/m2
11:14 18.3 °C 6.1 °C 1022.6 hPa Calm     46% 0 mm 550.00 W/m2
11:19 18.3 °C 6.7 °C 1022.6 hPa Calm     47% 0 mm 550.00 W/m2
11:24 18.3 °C 6.7 °C 1022.6 hPa Calm     47% 0 mm 515.00 W/m2
11:29 18.3 °C 6.1 °C 1022.6 hPa Calm     45% 0 mm 554.00 W/m2
11:34 18.9 °C 6.7 °C 1022.6 hPa Calm     46% 0 mm 570.00 W/m2
11:39 18.9 °C 6.7 °C 1022.6 hPa Calm     44% 0 mm 577.00 W/m2
11:44 19.4 °C 7.2 °C 1022.6 hPa Calm     46% 0 mm 577.00 W/m2
11:49 19.4 °C 7.2 °C 1022.6 hPa ENE 1.6 km/h   45% 0 mm 589.00 W/m2
11:53 20 °C 7.2 °C 1022.6 hPa Calm   1.6 km/h 45% 0 mm 585.00 W/m2
11:59 20 °C 7.2 °C 1022.6 hPa NW 4.8 km/h   44% 0 mm 587.00 W/m2
12:04 20 °C 7.2 °C 1022.6 hPa Calm   3.2 km/h 43% 0 mm 591.00 W/m2
12:09 20 °C 6.7 °C 1022.6 hPa Calm     42% 0 mm 592.00 W/m2
12:14 20.6 °C 7.2 °C 1022.6 hPa Calm     42% 0 mm 591.00 W/m2
12:19 20.6 °C 7.2 °C 1022.6 hPa Calm     42% 0 mm 591.00 W/m2
12:24 20.6 °C 7.2 °C 1022.6 hPa WNW 4.8 km/h   42% 0 mm 591.00 W/m2
12:29 20.6 °C 7.2 °C 1022.6 hPa Calm   3.2 km/h 42% 0 mm 591.00 W/m2
12:34 21.1 °C 7.2 °C 1022.6 hPa Calm     41% 0 mm 591.00 W/m2
12:39 21.1 °C 7.8 °C 1022.6 hPa Calm     41% 0 mm 601.00 W/m2
12:44 21.7 °C 7.2 °C 1022.6 hPa Calm     39% 0 mm 596.00 W/m2
12:49 21.7 °C 7.2 °C 1022.6 hPa Calm     39% 0 mm 594.00 W/m2
12:54 22.2 °C 8.3 °C 1022.6 hPa Calm     41% 0 mm 585.00 W/m2
12:59 22.2 °C 7.8 °C 1022.6 hPa Calm     39% 0 mm 584.00 W/m2
13:04 22.8 °C 7.8 °C 1022.6 hPa Calm     38% 0 mm 584.00 W/m2
13:09 22.8 °C 7.8 °C 1022.6 hPa NNW 8 km/h 3.2 km/h 38% 0 mm 571.00 W/m2
13:14 22.8 °C 7.2 °C 1022.6 hPa WNW 3.2 km/h 8 km/h 38% 0 mm 570.00 W/m2
13:19 22.2 °C 7.8 °C 1022.6 hPa Calm     40% 0 mm 568.00 W/m2
13:23 22.8 °C 8.3 °C 1022.6 hPa Calm     40% 0 mm 557.00 W/m2
13:29 22.8 °C 8.3 °C 1022.6 hPa Calm     40% 0 mm 545.00 W/m2
13:34 22.2 °C 7.8 °C 1022.6 hPa Calm     39% 0 mm 545.00 W/m2
13:39 22.2 °C 7.8 °C 1022.6 hPa Calm     41% 0 mm 536.00 W/m2
13:44 21.7 °C 8.3 °C 1019.2 hPa Calm     42% 0 mm 534.00 W/m2
13:49 22.2 °C 9.4 °C 1019.2 hPa NNE 4.8 km/h   44% 0 mm 526.00 W/m2
13:54 22.2 °C 8.3 °C 1019.2 hPa Calm   3.2 km/h 41% 0 mm 536.00 W/m2
13:59 22.2 °C 7.8 °C 1019.2 hPa WNW 1.6 km/h   40% 0 mm 520.00 W/m2
14:04 22.2 °C 7.8 °C 1019.2 hPa WNW 4.8 km/h 1.6 km/h 40% 0 mm 524.00 W/m2
14:09 22.2 °C 7.8 °C 1019.2 hPa Calm   3.2 km/h 40% 0 mm 492.00 W/m2
14:14 22.2 °C 7.8 °C 1019.2 hPa Calm     40% 0 mm 469.00 W/m2
14:19 21.7 °C 7.2 °C 1019.2 hPa Calm     39% 0 mm 469.00 W/m2
14:24 21.7 °C 7.2 °C 1019.2 hPa NNW 4.8 km/h 1.6 km/h 39% 0 mm 487.00 W/m2
14:29 22.2 °C 7.2 °C 1019.2 hPa ENE 3.2 km/h 3.2 km/h 38% 0 mm 483.00 W/m2
14:34 21.7 °C 6.7 °C 1019.2 hPa Calm     39% 0 mm 439.00 W/m2
14:39 21.1 °C 6.7 °C 1019.2 hPa Calm     39% 0 mm 396.00 W/m2
14:44 21.1 °C 6.7 °C 1019.2 hPa Calm     39% 0 mm 478.00 W/m2
14:48 21.7 °C 7.2 °C 1019.2 hPa Calm     40% 0 mm 455.00 W/m2
14:53 21.7 °C 7.2 °C 1019.2 hPa Calm     40% 0 mm 294.00 W/m2
14:59 21.7 °C 7.2 °C 1019.2 hPa Calm     39% 0 mm 301.00 W/m2
15:04 21.1 °C 6.7 °C 1019.2 hPa Calm     40% 0 mm 274.00 W/m2
15:09 20.6 °C 7.8 °C 1019.2 hPa NNW 1.6 km/h 1.6 km/h 43% 0 mm 376.00 W/m2
15:14 20.6 °C 7.8 °C 1019.2 hPa Calm     43% 0 mm 316.00 W/m2
15:19 20.6 °C 7.8 °C 1019.2 hPa Calm     44% 0 mm 264.00 W/m2
15:24 20.6 °C 8.3 °C 1019.2 hPa Calm     45% 0 mm 301.00 W/m2
15:29 20.6 °C 7.8 °C 1019.2 hPa Calm     44% 0 mm 301.00 W/m2
15:34 20.6 °C 7.8 °C 1019.2 hPa Calm     46% 0 mm 186.00 W/m2
15:39 19.4 °C 8.3 °C 1019.2 hPa Calm     48% 0 mm 149.00 W/m2
15:43 19.4 °C 7.8 °C 1019.2 hPa Calm     48% 0 mm 162.00 W/m2
15:45 18.9 °C 7.8 °C 1019.2 hPa Calm     48% 0 mm 130.00 W/m2
15:54 18.9 °C 7.8 °C 1019.2 hPa Calm     49% 0 mm 195.00 W/m2
15:58 18.9 °C 8.3 °C 1019.2 hPa Calm     50% 0 mm 195.00 W/m2
16:04 18.9 °C 8.3 °C 1019.2 hPa Calm     51% 0 mm 102.00 W/m2
16:09 18.3 °C 8.3 °C 1019.2 hPa Calm     52% 0 mm 95.00 W/m2
16:14 18.3 °C 8.3 °C 1019.2 hPa Calm     54% 0 mm 93.00 W/m2
16:19 17.8 °C 8.3 °C 1019.2 hPa Calm     54% 0 mm 76.00 W/m2
16:24 17.8 °C 8.9 °C 1019.2 hPa Calm     55% 0 mm 67.00 W/m2
16:29 17.8 °C 8.3 °C 1019.2 hPa Calm     56% 0 mm 62.00 W/m2
16:33 17.2 °C 8.3 °C 1019.2 hPa Calm     57% 0 mm 53.00 W/m2
16:39 17.2 °C 8.9 °C 1019.2 hPa Calm     58% 0 mm 47.00 W/m2
16:44 17.2 °C 9.4 °C 1019.2 hPa Calm     61% 0 mm 42.00 W/m2
16:49 16.7 °C 9.4 °C 1019.2 hPa Calm     61% 0 mm 33.00 W/m2
16:54 16.7 °C 9.4 °C 1019.2 hPa Calm     62% 0 mm 32.00 W/m2
El Dorado Weather
Compliments of Weather Underground - 2 mb